Погода в Суоярви

Хотите узнать прогноз погоды в Суоярви? Тогда Вам сюда: Погода в Суоярви

Поиск расширенной информации на нашем сайте:

Полезная информация:

Новости сайта



02.01.2020
Опубликован Долгосрочный прогноз погоды по городам России и ближнего зарубежья на январь 2020 года.
Карты: Прогноз на январь и февраль 2020 года, Сравнение прогнозируемой аномалии приземной температуры воздуха на январь 2020 года по разным моделям.




Погода в Суоярви - сегодня

Время (UTC), дата Ветер
(°,м/с) 
Видим.   Явления Облачность Т
(°С)
Тd
(°С)
f(%) Тe
(°С)
Pmin
(гПа)
dP
(гПа)
Po
(мм)
O2
(г/м3)
Тmin Tmax R s Состояние
почвы
12 29.11.20 130 (ЮВ) 12000 м    н/о 
-4.5 -5.4 93 -4  1034.4  -0.5  761  312           
15 29.11.20 120 (ЮВ) 7000 м    н/о 
-4.1 -5.1 93 -4  1033.8  -0.6  760  312      0.3     
18 29.11.20 130 (ЮВ) 20000 м    10/10 500 м 
[Sc]
-3.3 -4.7 90 -3  1032.3  -1.4  759  310    -2.9  0.4     
21 29.11.20 120 (ЮВ) 20000 м    н/о 
-3.1 -4.6 89 -3  1031.2  -1  758  310           
00 30.11.20 120 (ЮВ) 15000 м    н/о 
-3 -3.8 94 -3  1029.5  -1.7  757  309           
03 30.11.20 090 (В) 13000 м    н/о 
-3.2 -4.2 93 -4  1028  -1.5  756  309  -4.1         
06 30.11.20 110 (В) 5000 м  слаб. снег  10/10 150 м 
[Frnb|Ns]
-2.3 -3 95 -2  1026.4  -1.5  755  307  -3.4    0.0  равномерный
сухой снег
100% 
09 30.11.20 130 (ЮВ) 9000 м    н/о 
-1.3 -2.1 94 -2  1025  -1.3  754  305           
12 30.11.20 130 (ЮВ) 3600 м    н/о 
-0.5 -1.1 96 -1  1023.3  -1.6  753  304           
15 30.11.20 130 (ЮВ) н/о    н/о 
-0.1 -0.7 96 -1  1021.5  -1.7  751  303      0.8     
18 30.11.20 140 (ЮВ) 8000 м  слаб. снег  10/10 120 м 
[Frnb|Ns]
-0.1 -0.7 96 +1  1019.8  -1.7  750  302    +0  0.8     
21 30.11.20 170 (Ю) 1900 м    н/о 
-0.3 -0.9 96 1018.5  -1.3  749  302           
00 01.12.20 150 (ЮВ) 19000 м    н/о 
-1.4 -2 96 -1  1018.9  0.3  749  304           
03 01.12.20 190 (Ю) 2000 м    н/о 
-1.1 -1.7 96 -2  1018.5  -0.4  749  303  -1.4       
06 01.12.20 160 (Ю) 6000 м  слаб. снег  10/10 180 м 
[Frnb|Ns]
-1.3 -1.9 96 -1  1018.8  0.3  749  304  -1.6    15  равномерный
сухой снег
100% 
09 01.12.20 160 (Ю) 20000 м    н/о 
-1.1 -1.7 96 -1  1019.7  0.9  750  304           
12 01.12.20 170 (Ю) 20000 м    н/о 
-0.8 -1.5 95 -2  1019.7  750  303           
15 01.12.20 190 (Ю) 2700 м    н/о 
+0 -0.6 96 -2  1019.1  -0.5  750  302      0.7     
21 01.12.20 240 (ЮЗ) 20000 м    н/о 
+0.5 -0.5 93 1023.3  2.9  753  303           
00 02.12.20 220 (ЮЗ) 19000 м    н/о 
-0.1 -0.9 94 +1  1025.3  1.9  754  304           
03 02.12.20 240 (ЮЗ) 20000 м    н/о 
+0.2 -0.4 96 +1  1026.6  1.3  755  304  -0.2       
06 02.12.20 230 (ЮЗ) 20000 м    6/6 540 м 
[Sc]
-0.4 -1.1 95 1028.1  1.4  756  305  -0.4    13  равномерный
мокрый или
старый снег
100% 
09 02.12.20 230 (ЮЗ) 20000 м    н/о 
+0 -0.7 95 +1  1029.1  757  305           
12 02.12.20 190 (Ю) 20000 м    н/о 
+0.2 -0.4 96 +1  1029.4  0.3  757  305           
15 02.12.20 210 (ЮЗ) 10 км    н/о 
+0.8 +0.4 97 1029.4  0.1  757  304           
Время (UTC), дата Ветер
(°,м/с) 
Видим.   Явления Облачность Т
(°С)
Тd
(°С)
f(%) Тe
(°С)
Pmin
(гПа)
dP
(гПа)
Po
(мм)
O2
(г/м3)
Тmin Tmax R s Состояние
почвы

Для получения пояснительной информации подведите курсор к названию столбца.

ПОГОДА в Суоярви - архив

Всё, что Вы хотите узнать о погоде в Суоярви - удобно и подробно!

Выберите нужную дату (начиная с 1 января 2019* года) и нажмите кнопку "Найти".
Будут отображены архивные сводки погоды по пункту Суоярви, начиная с указанной даты.


Отображать данные в формате CSV (для использования в таблицах Excel)


Внимание! Наш архив погоды предназначен исключительно для личного некоммерческого использования в познавательных целях. Если Вам необходимы официальные справки о состоянии погоды (для производственных, юридических, коммерческих и т.п. целей), обращайтесь в органы Росгидромета.

*Примечание: данная дата относится к архиву по метеостанциям СССР (Россия, СНГ, Балтия).
Архив по метеостанциям Зарубежной Европы и Азии (кроме Китая) хранится 10 дней, по другим регионам земного шара (Китай, Африка, Америка, Австралия, Океания) - 1 день.

Суоярви - район местоположения метеостанции


Название, широта, долгота, высота метеостанции:
Суоярви 62.1°ш. 32.4°д. 156 м над ур. моря [Российская Федерация]

Дополнительная информация

В oтличие oт бoльшинства пoгoдных сайтoв мы публикуем пoдрoбную метеoинфoрмацию в детальнoм прoфессиoнальнoм фoрмате.

Характеристики температуры и влажнoсти вoздуха измеряются на высoте 2 м в тени вдали oт зданий и деревьев.
Скoрoсть ветра измеряется на высoте 10 м (на урoвне рoста челoвека скoрoсть ветра ниже в 1.5-2 раза). Если метеoстанция нахoдится в гoрoде или в лесу, тo скoрoсть ветра занижена на 2-4 м/с пo сравнению с oткрытым местoм. Скoрoсть ветра над акватoриями крупных рек и oзёр, а также на вершинах хoлмoв на 2-5 м/с выше, чем в oбычных услoвиях.
Атмoсфернoе давление в разных тoчках местнoсти мoжет значительнo oтличаться oт давления на метеoстанции, в зависимoсти oт услoвий рельефа (при пoдъёме на 10 м давление пoнижается примернo на 1 мм рт.ст.).